LEMUR-2-NICK-ALLAIN

Last updated on April 6, 2017, 12:15 a.m. UTC

1 41488U 98067JJ  17094.87844965  .04570311  12034-4  11307-2 0  9996
2 41488  51.6143   5.3663 0009819 231.1408 129.3884 16.28244348 50480

Satellite is not in orbit.